Regional Weather Roundup
Issued by NWS

Home | Current Version | Previous Version | Graphics & Text | Print | Product List | Glossary On
Versions: 1 2 3 4 5 6 7 8 9 10 11 12 13 14 15 16 17 18 19 20 21 22 23 24 25 26 27 28 29 30 31 32 33 34 35 36 37 38 39 40 41 42 43 44 45 46 47 48 49 50
000
ASUS43 KLOT 282006
RWRIL

ILLINOIS REGIONAL WEATHER ROUNDUP
NATIONAL WEATHER SERVICE CHICAGO/ROMEOVILLE IL
300 PM CDT THU AUG 28 2014

NOTE: "FAIR" INDICATES FEW OR NO CLOUDS BELOW 12,000 FEET WITH NO
SIGNIFICANT WEATHER AND/OR OBSTRUCTIONS TO VISIBILITY.

* THESE STATIONS ARE NOT UNDER NWS QUALITY CONTROL. THEY ALSO MAY NOT
  REPORT WEATHER SUCH AS PRECIPITATION OR FOG.

ILZ001-002-007-009-015-016-024-282100-
NORTHWEST ILLINOIS

CITY           SKY/WX    TMP DP  RH WIND       PRES   REMARKS
MOLINE         CLOUDY    71  67  87 E13       30.01F
STERLING*      CLOUDY    73  66  78 SE10      30.05F
SAVANNA*       CLOUDY    76  62  62 E8        30.04S
$$

ILZ003-004-008-010-011-017-018-282100-
NORTH CENTRAL ILLINOIS

CITY           SKY/WX    TMP DP  RH WIND       PRES   REMARKS
ROCKFORD       CLOUDY    75  59  57 E7        30.08F
FREEPORT*      CLOUDY    73  64  74 SE5       30.09F
ROCHELLE*      PTSUNNY   78  60  54 E8        30.06F
DE KALB*       MOSUNNY   76  57  52 E6        30.08F
PERU*          CLOUDY    77  64  63 E9        30.05F
$$

ILZ005-006-012>014-019>023-282100-
NORTHEAST ILLINOIS

CITY           SKY/WX    TMP DP  RH WIND       PRES   REMARKS
CHICAGO-OHARE  PTSUNNY   76  54  46 NE12      30.08F
CHICAGO-MIDWAY PTSUNNY   76  59  55 E9        30.08F
AURORA         MOSUNNY   80  56  43 SE7       30.07F HX  80
LANSING*       MOSUNNY   77  63  62 NE8       30.07F
JOLIET*        SUNNY     79  59  50 E7        30.07F HX  80
WAUKEGAN       MOSUNNY   70  57  63 NE12      30.10F
DUPAGE AIRPORT MOSUNNY   80  55  42 E6        30.06F HX  80
KANKAKEE*      MOSUNNY   79  65  62 CALM      30.06F HX  81
WHEELING       PTSUNNY   73  55  53 E8        30.10F
MORRIS*        SUNNY     80  65  59 E6        30.06S HX  82
ROMEOVILLE*    MOSUNNY   79  59  50 E5        30.07S HX  80
NORTHERLY ISL    N/A     70  60  70 N10         N/A
$$

LMZ740>746-282100-
SOUTHERN LAKE MICHIGAN

STATION/POSITION SKY/WX   TEMP    WIND        PRES    VSBY  WAVE
                          AIR SEA DIR/SP/G                  HT/PER
                          (F)     (DEG/KT/KT) (MB)    (MI)  (FT/S)
SOUTHERN BUOY              67 69   50/ 10/ 10 1019.7F
WAUKEGAN HARBOR            68      80/  9/ 11   N/A
HARRISON CRIB              68      40/ 13/ 15   N/A
BURNHAM HARBOR             71      40/  9/ 10   N/A
CALUMET HARBOR             71      10/  9/ 11 1017.6F
MICHIGAN CITY              69      10/ 12/ 14   N/A
MICHIGAN CITY 6N           70 73   40/ 12/ 14   N/A           2/ 4
ST. JOSEPH                 70 73   10/ 12/ 14   N/A           1/ 2
$$

ILZ025>027-034>036-040-047-049-050-058-095>099-282100-
WEST-CENTRAL ILLINOIS

CITY           SKY/WX    TMP DP  RH WIND       PRES   REMARKS
QUINCY         PTSUNNY   86  73  65 S7        29.97F HX  93
GALESBURG*     MOSUNNY   82  72  69 E8        29.99F HX  87
MACOMB*        CLOUDY    82  73  73 SE7       30.00F HX  88
JACKSONVILLE*  MOSUNNY   89  75  62 S7        29.98F HX  99
PITTSFIELD*    MOSUNNY   89  72  57 S8        29.98F HX  96
$$

ILZ028>032-037-038-041>044-048-051>054-059>061-282100-
CENTRAL ILLINOIS

CITY           SKY/WX    TMP DP  RH WIND       PRES   REMARKS
PONTIAC        PTSUNNY   81  66  61 E5        30.04F HX  83
DECATUR        MOSUNNY   85  72  65 E7        30.01F HX  91
PEORIA         MOSUNNY   83  70  64 E8        30.01F HX  87
LACON*         PTSUNNY   78  65  64 E6        30.02F HX  80
LINCOLN*       MOSUNNY   87  71  58 SE7       29.97F HX  92
SPRINGFIELD    MOSUNNY   86  73  65 SE7       29.99F HX  93
TAYLORVILLE    PTSUNNY  N/A N/A N/A S6        30.00F
$$

ILZ033-039-045-046-055>057-062-063-282100-
EAST-CENTRAL ILLINOIS

CITY           SKY/WX    TMP DP  RH WIND       PRES   REMARKS
CHAMPAIGN      MOSUNNY   83  68  60 SE6       30.04F HX  86
DANVILLE*      SUNNY     82  65  56 SE6       30.02F HX  84
RANTOUL*       MOSUNNY   84  64  50 SE6       30.05F HX  86
MATTOON        SUNNY     85  72  65 CALM      30.01F HX  91
PARIS*         SUNNY     83  67  57 CALM      30.04F HX  86
$$

ILZ079-100>102-282100-
SOUTHWEST ILLINOIS

CITY           SKY/WX    TMP DP  RH WIND       PRES   REMARKS
BELLEVILLE     SUNNY     88  76  67 NE5       29.97F HX  99
CAHOKIA*       MOSUNNY   90  75  62 VRB3      29.97  HX 100
SPARTA*        PTSUNNY   87  74  65 CALM      29.99F HX  96
$$

ILZ064>066-069>071-074>076-080>082-084>086-088>090-092>094-282100-
SOUTH-CENTRAL ILLINOIS

CITY           SKY/WX    TMP DP  RH WIND       PRES   REMARKS
CARBONDALE     TSTM      78  70  76 CALM      29.99F HX  80
CAIRO*         SUNNY     94  72  49 CALM      29.95F HX 101
EFFINGHAM*     MOSUNNY   88  69  53 SE6       30.01F HX  92
MARION         TSTM      81  72  74 SW17      30.03  HX  84
MT. VERNON     MOSUNNY   90  75  62 NE9       29.98F HX 100
SALEM*         CLOUDY    86  77  72 CALM      30.00F HX  97
METROPOLIS*    SUNNY     91  72  53 CALM      29.95F HX  98
$$

ILZ067-068-072-073-078-083-087-091-282100-
SOUTHEAST ILLINOIS

CITY           SKY/WX    TMP DP  RH WIND       PRES   REMARKS
LAWRENCEVILLE  SUNNY     88  73  61 E7        30.00F HX  95
FLORA*         SUNNY     88  72  58 NE5       30.00F HX  94
FAIRFIELD*     SUNNY     88  79  74 NE3       29.99F HX 102
HARRISBURG*    TSTM      73  71  93 S20G33    30.01R VSB 1/2
ROBINSON*      SUNNY     89  73  59 NE3       30.02F HX  97
CARMI*         MOSUNNY   89  77  67 CALM      29.97F HX 101
$$

ABBREVIATIONS USED IN REMARKS
   TC - TEMPERATURE IN CELSIUS
  WCI - WIND CHILL INDEX
   HX - HEAT INDEX
  VSB - VISIBILITY
$$




USA.gov is the U.S. government's official web portal to all federal, state and local government web resources and services.